Weather in Ronne

Denmark     55°06′00″N   14°42′08″E
temp.,
°C
wind,
m/s
gust,
m/s
humid.,
%
clouds,
%
prec.,
mm/h
press.,
hPa
HPBL,
m
22 april, thu
thu2223:00+6w1216745 0.0 1009724
02:00+5w1316826 0.0 1008580
05:00+5w131779100 0.0 1008928
08:00+5wnw131870100 0.0 10091429
11:00+5wnw11156596 0.1 10111517
14:00+6wnw12166194 0.1 1012648
17:00+6wnw13175810 0.0 1014544
20:00+6nw1116625 0.0 1015433
23 april, fri
fri2323:00+6nw8127097 0.0 1016274
02:00+5nw7117472 0.0 1017240
05:00+5nw5576100 0.0 1017143
08:00+5n996811 0.2 1018688
11:00+6nw811610 0.0 1020439
14:00+6w111464100 0.0 1021371
17:00+6w1216715 0.1 1021424
20:00+6nw914604 0.1 1022345
24 april, sat
sat2423:00+5nw69675 0.0 1022215
02:00+5nw67744 0.0 1022206
05:00+5nnw45685 0.0 1022175
08:00+5nnw33655 0.0 1022147
11:00+5nw566390 0.0 1022273
14:00+5w556726 0.0 1022201
17:00+7nne44515 0.1 102251
20:00+6wnw685812 0.1 1023157
25 april, sun
sun2523:00+5n45655 0.0 102480
02:00+6nnw56650 0.0 1024146
05:00+5nnw711620 0.0 1024607
08:00+4nnw8126087 0.0 1024811
11:00+5nw711591 0.0 10251295
14:00+6wnw9126495 0.0 1024385
17:00+7wnw1014635 0.0 1023416
20:00+6nw913620 0.0 1022367
26 april, mon
mon2623:00+5nw68690 0.0 1022236
02:00+6n44755 0.0 101888
05:00+6nnw33690 0.0 101762
08:00+5n56720 0.0 1017199
11:00+6nnw44640 0.0 1018136
14:00+6ene01650 0.0 101847
17:00+5se54675 0.0 1017229
20:00+6se4573100 0.0 1017191